Location: Noulens
(43.8099°N, 0.1664°E)
Time: 18:16:42
(UTC+00:00)

STARLINK-1277 - Pass Details

Date: 07 June 2020
Orbit: 549 x 551 km, 53.0° (Epoch: 09 July)

Event Time Altitude Azimuth Distance (km) Brightness Sun altitude
Exits shadow 02:21:05 24° 250° (WSW) 1,150 4.8 -15.8°
Maximum altitude 02:23:26 67° 328° (NNW) 597 3.8 -15.6°
Drops below altitude 10° 02:27:34 10° 52° (NE) 1,827 7.5 -15.1°
Sets 02:29:49 0° 55° (NE) 2,724 8.6 -14.9°
